Location: Anmer
(52.8333°N, 0.5833°E)
Time: 16:04:11
(UTC+00:00)

Helios 1B rocket - Pass Details

Date: 15 May 2026
Orbit: 459 x 465 km, 98.2° (Epoch: 10 June)

Event Time Altitude Azimuth Distance (km) Brightness Sun altitude
Exits shadow 21:25:41 10° 102° (ESE) 1,634 4.3 -11.3°
Maximum altitude 21:28:02 17° 60° (ENE) 1,256 4.1 -11.5°
Drops below altitude 10° 21:30:24 10° 17° (NNE) 1,645 5.3 -11.7°
Sets 21:32:57 0° 358° (N) 2,526 6.8 -11.9°
